Granada, Spain

12:55 AM CET on December 16, 2017 (GMT +0100)
Granada

Weather History for LEGR - January, 2014

Change the Weather History Date:

Wednesday, January 8, 2014

  Actual Average Record
Temperature  
Mean Temperature 52 °F -  
Max Temperature 76 °F 55 °F 76 °F (2014)
Min Temperature 27 °F 32 °F 19 °F (2005)
Degree Days  
Heating Degree Days 14    
Growing Degree Days 2 (Base 50)    
Moisture  
Dew Point 31 °F    
Average Humidity 57    
Maximum Humidity 100    
Minimum Humidity 7    
Precipitation  
Precipitation 0.00 in - - ()
Sea Level Pressure  
Sea Level Pressure 30.19 in    
Wind  
Wind Speed 0 mph ()    
Max Wind Speed 6 mph    
Max Gust Speed -    
Visibility 13.2 miles    
Events      
Averages and records for this station are not official NWS values.
T = Trace of Precipitation, MM = Missing Value Source: Averaged Metar Reports

Daily Weather History Graph

Daily Weather History Graph

Search for Another Location

Airport or City:

Trip Planner

Search our weather history database for the weather conditions in past years. The results will help you decide how hot, cold, wet, or windy it might be!

Date:

Astronomy

Jan. 08, 2014 Rise Set
Actual Time 8:29 AM CET 6:14 PM CET
Civil Twilight 8:00 AM CET 6:43 PM CET
Nautical Twilight 7:28 AM CET 7:15 PM CET
Astronomical Twilight 6:56 AM CET 7:47 PM CET
Moon 12:54 PM CET (1/8) 1:24 AM CET (1/8)
Length of Visible Light 10h 42m
Length of Day
9h 45m
First Quarter, 53% of the Moon is Illuminated
Jan 8
First Quarter
Jan 16
Full
Jan 24
Last Quarter
Jan 30
New
Feb 6
First Quarter

Hourly Weather History & Observations

Time (CET) Temp. Dew Point Humidity Pressure Visibility Wind Dir Wind Speed Gust Speed Precip Events Conditions
12:00 AM 34 °F 31 °F 86% 30.30 in 11 mi Calm Calm - -  
1:00 AM 32 °F 30 °F 89% 30.30 in 13 mi Calm Calm - -  
2:00 AM 31 °F 29 °F 89% 30.30 in 11 mi Calm Calm - -  
3:00 AM 31 °F 29 °F 89% 30.30 in 19 mi Calm Calm - -  
4:00 AM 30 °F 28 °F 88% 30.30 in 12 mi WSW 2.3 mph - -  
5:00 AM 30 °F 28 °F 91% 30.30 in 13 mi Calm Calm - -  
6:00 AM 30 °F 29 °F 93% 30.30 in 19 mi Calm Calm - -   Mist
6:00 AM 30.2 °F 28.4 °F 93% 30.18 in - Calm Calm - N/A   Clear
6:30 AM 30.2 °F 30.2 °F 100% 30.18 in - Calm Calm - N/A   Clear
7:00 AM 29 °F 27 °F 90% 30.30 in 9 mi Calm Calm - -   Partly Cloudy
7:00 AM 30.2 °F 28.4 °F 93% 30.18 in - Variable 1.2 mph - N/A   Clear
7:30 AM 28.4 °F 28.4 °F 100% 30.18 in - Calm Calm - N/A   Clear
8:00 AM 28 °F 26 °F 91% 30.32 in 6 mi Calm Calm - -   Partly Cloudy
8:00 AM 28.4 °F 26.6 °F 93% 30.18 in - Calm Calm - N/A   Clear
8:30 AM 28.4 °F 26.6 °F 93% 30.21 in - Calm Calm - N/A   Clear
9:00 AM 31 °F 28 °F 84% 30.31 in 11 mi Calm Calm - -   Clear
9:00 AM 30.2 °F 28.4 °F 93% 30.21 in - Calm Calm - N/A   Clear
9:30 AM 35.6 °F 32.0 °F 87% 30.21 in - Calm Calm - N/A   Clear
10:00 AM 40 °F 33 °F 66% 30.28 in 3 mi Calm Calm - -   Scattered Clouds
10:00 AM 37.4 °F 32.0 °F 81% 30.21 in 3.1 mi Calm Calm - N/A   Partly Cloudy
10:30 AM 42.8 °F 33.8 °F 70% 30.21 in - Calm Calm - N/A   Clear
11:00 AM 50 °F 34 °F 43% 30.25 in 5 mi Calm Calm - -   Mist
11:00 AM 48.2 °F 33.8 °F 58% 30.24 in - Calm Calm - N/A   Clear
11:30 AM 50.0 °F 33.8 °F 54% 30.24 in - Calm Calm - N/A   Clear
12:00 PM 56 °F 33 °F 30% 30.22 in 13 mi Calm Calm - -   Clear
12:00 PM 51.8 °F 33.8 °F 50% 30.21 in - Calm Calm - N/A   Clear
12:30 PM 57.2 °F 32.0 °F 38% 30.21 in - Calm Calm - N/A   Clear
1:00 PM 62 °F 31 °F 20% 30.16 in 16 mi Calm Calm - -   Partly Cloudy
1:00 PM 59.0 °F 32.0 °F 36% 30.18 in - Calm Calm - N/A   Clear
1:30 PM 62.6 °F 32.0 °F 32% 30.18 in - Calm Calm - N/A   Clear
2:00 PM 66 °F 31 °F 17% 30.12 in 16 mi Calm Calm - -   Partly Cloudy
2:00 PM 64.4 °F 32.0 °F 30% 30.15 in - Calm Calm - N/A   Clear
2:30 PM 64.4 °F 33.8 °F 32% 30.15 in - Calm Calm - N/A   Clear
3:00 PM 70 °F 33 °F 15% 30.07 in 12 mi Calm Calm - -  
3:00 PM 68.0 °F 32.0 °F 26% 30.12 in - Calm Calm - N/A   Clear
3:30 PM 69.8 °F 30.2 °F 23% 30.12 in - Calm Calm - N/A   Clear
4:00 PM 74 °F 28 °F 9% 30.05 in 16 mi Calm Calm - -   Partly Cloudy
4:00 PM 71.6 °F 26.6 °F 19% 30.12 in - Calm Calm - N/A   Clear
4:30 PM 71.6 °F 26.6 °F 19% 30.12 in - Calm Calm - N/A   Clear
5:00 PM 75 °F 25 °F 7% 30.05 in 16 mi Calm Calm - -  
5:00 PM 73.4 °F 28.4 °F 19% 30.12 in - Calm Calm - N/A   Clear
6:00 PM 63 °F 27 °F 14% 30.10 in 19 mi South 5.8 mph - -  
6:00 PM 64.4 °F 26.6 °F 24% 30.12 in - South 4.6 mph - N/A   Clear
6:30 PM 62.6 °F 28.4 °F 27% 30.12 in - SSW 3.5 mph - N/A   Clear
7:00 PM 60 °F 25 °F 15% 30.12 in 19 mi West 2.3 mph - -   Partly Cloudy
7:30 PM 59.0 °F 28.4 °F 31% 30.15 in - Variable 2.3 mph - N/A   Clear
8:00 PM 53 °F 31 °F 31% 30.17 in 17 mi East 2.3 mph - -  
8:00 PM 48.2 °F 35.6 °F 62% 30.15 in - Variable 2.3 mph - N/A   Clear
8:30 PM 48.2 °F 33.8 °F 58% 30.15 in - Variable 2.3 mph - N/A   Clear
9:00 PM 45 °F 34 °F 54% 30.22 in 19 mi WSW 1.2 mph - -   Clear
9:00 PM 44.6 °F 33.8 °F 66% 30.18 in - Variable 1.2 mph - N/A   Clear
9:30 PM 42.8 °F 33.8 °F 70% 30.18 in - Calm Calm - N/A   Clear
10:00 PM 41 °F 33 °F 62% 30.25 in 12 mi South 1.2 mph - -   Scattered Clouds
10:00 PM 42.8 °F 33.8 °F 70% 30.18 in - Variable 1.2 mph - N/A   Clear
10:30 PM 39.2 °F 33.8 °F 81% 30.18 in - Calm Calm - N/A   Clear
11:00 PM 39 °F 33 °F 70% 30.26 in 19 mi Calm Calm - -  
11:00 PM 39.2 °F 33.8 °F 81% 30.18 in - Calm Calm - N/A   Clear